Location: Newark
(40.7066°N, 111.8219°W)
Time: 22:27:54
(UTC+00:00)

Transit 2A Rocket - Pass Details

Date: 22 November 2019
Orbit: 594 x 909 km, 66.7° (Epoch: 07 December)

Event Time Altitude Azimuth Distance (km) Brightness Sun altitude
Rises 14:10:58 0° 317° (NW) 2,864 - -2.7°
Exits shadow 14:11:22 - 315° (NW) 2,719 7.3 -2.7°
Reaches altitude 10° 14:13:30 10° 303° (WNW) 1,981 6.5 -2.3°
Maximum altitude 14:17:03 24° 249° (WSW) 1,322 5.9 -1.7°
Drops below altitude 10° 14:20:47 10° 196° (SSW) 2,081 7.4 -1.1°
Sets 14:23:31 0° 183° (S) 3,045 8.4 -0.6°
